Home > Weather > Dübendorf > Past weeks

Flag for Switzerland Past Weather in Dübendorf, Zurich, Switzerland — Yesterday and Last 2 Weeks

Now
65 °F

Mild.


Feels Like: 65 °F
Forecast: 57 / 84 °F
Wind: 3 mph from Southwest

Location: Zuerich-Fluntern

Current Time: Jul 29, 2016 at 8:08:25 AM

Latest Report: Jul 29, 2016 at 7:00 AM


Visibility: N/A

Pressure: 30.03 "Hg

Humidity: 77%

Dew Point: 58 °F

Location of DübendorfLocation

Past Weather in Dübendorf — Graph

°F

Dübendorf Temperature Yesterday

Maximum temperature yesterday: 77 °F (at 2:00 PM)
Minimum temperature yesterday: 60 °F (at 6:00 AM)
Average temperature yesterday: 68 °F

High & Low Weather Summary for the Past Weeks

 TemperatureHumidityPressure
High88 °F (Jul 20, 5:00 PM)100% (Jul 19, 4:00 PM)30.37 "Hg (Jul 19, 4:00 PM)
Low47 °F (Jul 16, 5:00 AM)32% (Jul 20, 7:00 PM)29.88 "Hg (Jul 20, 7:00 PM)
Average67 °F74%30.10 "Hg
* Reported Jul 14 6:00 AM — Jul 29 6:00 AM, Dübendorf, Weather by CustomWeather, © 2016

Note: Actual official high and low records may vary slightly from our data, if they occured in-between our weather recording intervals... More about our weather records

Advertising

Dübendorf Weather History for the Previous 24 Hours

Scroll right to see more
 ConditionsComfort  
Time TempWeatherWind HumidityBarometerVisibility
6:00 AM
Fri, Jul 29
65 °FMild.3 mph77%30.03 "HgN/A
5:00 AM65 °FMild.5 mph75%30.03 "HgN/A
4:00 AM66 °FMild.2 mph73%30.03 "HgN/A
3:00 AM67 °FMild.3 mph71%30.03 "HgN/A
2:00 AM66 °FMild.2 mph77%30.04 "HgN/A
1:00 AM67 °FMild.2 mph71%30.03 "HgN/A
12:00 AM67 °FMild.2 mph72%30.04 "HgN/A
11:00 PM
Thu, Jul 28
66 °FMild.2 mph74%30.03 "HgN/A
10:00 PM67 °FMild.2 mph71%30.03 "HgN/A
9:00 PM71 °FMild.5 mph60%30.01 "HgN/A
8:00 PM71 °FScattered clouds.5 mph60%30.00 "HgN/A
7:00 PM72 °FMild.6 mph58%29.99 "HgN/A
6:00 PM73 °FMild.5 mph60%29.98 "HgN/A
5:00 PM75 °FMild.8 mph54%29.98 "HgN/A
4:00 PM76 °FMild.6 mph53%29.98 "HgN/A
3:00 PM76 °FMild.7 mph48%29.99 "HgN/A
2:00 PM77 °FScattered clouds.7 mph49%30.00 "HgN/A
1:00 PM74 °FMild.6 mph55%30.03 "HgN/A
12:00 PM73 °FMild.3 mph62%30.04 "HgN/A
11:00 AM70 °FMild.2 mph72%30.06 "HgN/A
10:00 AM65 °FMild.3 mph79%30.07 "HgN/A
9:00 AM63 °FMild.No wind84%30.07 "HgN/A
8:00 AM62 °FPartly sunny.2 mph89%30.08 "HgN/A
Weather by CustomWeather, © 2016

See weather overviewHow to use our weather pages